VHJMU YBBN-YBCG

Flight info

Callsign VHJMU
Flight time N/A
Altitude 13000
Route CITEE DCT VERIK DCT IRPOD
Aircraft PC12/L-SDFGRWY/S

Departure

Time 2026-04-27 02:34
Airport Brisbane International Airport (YBBN)

Arrival

Time N/A
Airport Gold Coast Airport (YBCG)
Time Latitude Longitude Altitude Speed Heading
2026-04-27 02:28 -27.37328 153.12569 41 ft 0 kts 207°
2026-04-27 02:29 -27.37329 153.12569 41 ft 0 kts 202°
2026-04-27 02:30 -27.37336 153.12566 14 ft 4 kts 197°
2026-04-27 02:30 -27.37351 153.12599 14 ft 8 kts 53°
2026-04-27 02:30 -27.37316 153.12649 14 ft 10 kts 111°
2026-04-27 02:30 -27.37347 153.12716 14 ft 9 kts 116°
2026-04-27 02:31 -27.37374 153.12778 14 ft 9 kts 117°
2026-04-27 02:31 -27.37405 153.12844 14 ft 11 kts 118°
2026-04-27 02:31 -27.37442 153.12925 14 ft 13 kts 116°
2026-04-27 02:31 -27.37485 153.13018 14 ft 14 kts 117°
2026-04-27 02:32 -27.37521 153.13125 14 ft 15 kts 102°
2026-04-27 02:32 -27.37450 153.13216 15 ft 19 kts 32°
2026-04-27 02:32 -27.37333 153.13283 15 ft 16 kts 56°
2026-04-27 02:32 -27.37344 153.13375 15 ft 9 kts 131°
2026-04-27 02:33 -27.37398 153.13424 17 ft 12 kts 156°
2026-04-27 02:33 -27.37480 153.13424 19 ft 9 kts 206°
2026-04-27 02:33 -27.37505 153.13409 18 ft 20 kts 205°
2026-04-27 02:33 -27.37835 153.13226 17 ft 80 kts 206°
2026-04-27 02:34 -27.38414 153.12874 97 ft 109 kts 204°
2026-04-27 02:34 -27.39125 153.12444 375 ft 125 kts 207°
2026-04-27 02:34 -27.39879 153.11944 738 ft 127 kts 208°
2026-04-27 02:34 -27.40644 153.11375 958 ft 136 kts 211°
2026-04-27 02:35 -27.41426 153.10767 1231 ft 133 kts 202°
2026-04-27 02:35 -27.42236 153.10705 1541 ft 116 kts 150°
2026-04-27 02:35 -27.42707 153.11492 1382 ft 141 kts 107°
2026-04-27 02:35 -27.42625 153.12603 1408 ft 145 kts 79°
2026-04-27 02:36 -27.41954 153.13402 1525 ft 146 kts 34°
2026-04-27 02:36 -27.40903 153.13794 1186 ft 165 kts 26°
2026-04-27 02:36 -27.39887 153.14378 1061 ft 158 kts 39°
2026-04-27 02:36 -27.39032 153.15014 996 ft 140 kts 44°
2026-04-27 02:37 -27.38241 153.15598 894 ft 129 kts 43°
2026-04-27 02:37 -27.37450 153.15904 861 ft 115 kts
2026-04-27 02:37 -27.36766 153.15545 742 ft 103 kts 305°
2026-04-27 02:37 -27.36523 153.14831 620 ft 98 kts 275°
2026-04-27 02:38 -27.36629 153.14104 382 ft 87 kts 228°
2026-04-27 02:38 -27.37050 153.13689 198 ft 76 kts 210°
2026-04-27 02:38 -27.37488 153.13415 28 ft 69 kts 201°
2026-04-27 02:38 -27.37813 153.13230 17 ft 34 kts 214°
2026-04-27 02:39 -27.38003 153.13121 18 ft 27 kts 211°
2026-04-27 02:39 -27.38066 153.12986 16 ft 14 kts 284°
2026-04-27 02:39 -27.38007 153.12885 14 ft 16 kts 301°
2026-04-27 02:39 -27.37971 153.12801 14 ft 0 kts 293°
2026-04-27 02:40 -27.37970 153.12796 14 ft 4 kts 298°
2026-04-27 02:40 -27.37929 153.12743 14 ft 15 kts 320°
2026-04-27 02:40 -27.37866 153.12759 14 ft 12 kts 79°
2026-04-27 02:40 -27.37853 153.12846 14 ft 12 kts 40°
2026-04-27 02:41 -27.37790 153.12881 14 ft 11 kts 27°
2026-04-27 02:41 -27.37710 153.12925 14 ft 14 kts 26°
2026-04-27 02:41 -27.37612 153.12980 14 ft 17 kts 27°
2026-04-27 02:41 -27.37513 153.13031 14 ft 11 kts
2026-04-27 02:42 -27.37458 153.12960 14 ft 15 kts 295°
2026-04-27 02:42 -27.37405 153.12847 14 ft 17 kts 297°
2026-04-27 02:42 -27.37349 153.12722 14 ft 18 kts 296°
2026-04-27 02:42 -27.37298 153.12613 14 ft 8 kts 298°
2026-04-27 02:43 -27.37307 153.12581 14 ft 4 kts 202°
2026-04-27 02:43 -27.37318 153.12574 14 ft 0 kts 207°
2026-04-27 02:43 -27.37319 153.12574 14 ft 0 kts 207°
2026-04-27 02:44 -27.37328 153.12569 13 ft 0 kts 207°